Simultaneous Nadir Overpasses (SNOs) Predictions

Prediction of SNOs between GOES-16 and AQUA Satellite Orbit:

Table of predicted SNOs for the next 14.0 days since TLE Epoch: 4/24/2021
Index Date Time (GOES-16) GOES-16 Lat,Lon AQUA Lat,Lon Distance(km) Time Diff (sec)
1 04/25/2021 18:35:15 0.02, -75.18 0.16, -74.64 62.43 80
2 04/27/2021 18:23:03 0.03, -75.19 0.78, -71.68 399.62 80
3 04/28/2021 06:44:18 -0.02, -75.20 0.31, -76.83 185.18 80
4 04/30/2021 06:29:26 -0.02, -75.21 -0.31, -73.87 152.26 80
5 04/30/2021 18:50:50 0.02, -75.20 -0.82, -79.06 438.97 80
6 05/02/2021 06:17:14 -0.02, -75.22 -0.94, -70.91 490.21 80
7 05/02/2021 18:38:38 0.02, -75.22 -0.19, -76.10 100.76 80
8 05/04/2021 18:29:06 0.01, -75.24 0.45, -73.14 238.39 80
9 05/05/2021 06:50:21 -0.01, -75.26 0.65, -78.30 345.48 80
10 05/07/2021 06:38:09 -0.01, -75.30 0.02, -75.34 5.50 80
